DAL1324 KIAD-KATL

Flight info

Callsign DAL1324
Flight time 1h 17m
Altitude 34000
Route CLTCH3 FLASK OZZZI2
Aircraft A320/M-SDE3FGHIRWY/LB1

Departure

Time 2026-05-04 18:04
Airport Washington Dulles International Airport (KIAD)

Arrival

Time 2026-05-04 19:21
Airport Hartsfield Jackson Atlanta International Airport (KATL)
Time Latitude Longitude Altitude Speed Heading
2026-05-04 17:39 38.94826 -77.45433 301 ft 0 kts 16°
2026-05-04 17:55 38.94803 -77.45441 301 ft 4 kts 16°
2026-05-04 17:56 38.94777 -77.45451 300 ft 4 kts 16°
2026-05-04 17:56 38.94756 -77.45459 300 ft 4 kts 10°
2026-05-04 17:56 38.94736 -77.45455 300 ft 4 kts 298°
2026-05-04 17:56 38.94731 -77.45425 300 ft 4 kts 270°
2026-05-04 17:57 38.94731 -77.45415 300 ft 0 kts 270°
2026-05-04 17:59 38.94731 -77.45442 300 ft 11 kts 270°
2026-05-04 17:59 38.94730 -77.45562 300 ft 14 kts 257°
2026-05-04 17:59 38.94460 -77.45613 302 ft 23 kts 180°
2026-05-04 18:00 38.94300 -77.45615 300 ft 23 kts 180°
2026-05-04 18:00 38.94142 -77.45616 300 ft 23 kts 180°
2026-05-04 18:00 38.93980 -77.45618 300 ft 24 kts 180°
2026-05-04 18:00 38.93803 -77.45620 300 ft 25 kts 181°
2026-05-04 18:01 38.93665 -77.45557 301 ft 21 kts 129°
2026-05-04 18:01 38.93555 -77.45512 300 ft 19 kts 201°
2026-05-04 18:01 38.93453 -77.45561 300 ft 0 kts 201°
2026-05-04 18:02 38.93452 -77.45561 300 ft 1 kts 201°
2026-05-04 18:02 38.93399 -77.45595 298 ft 13 kts 218°
2026-05-04 18:02 38.93392 -77.45701 302 ft 12 kts 291°
2026-05-04 18:03 38.93454 -77.45911 299 ft 57 kts 290°
2026-05-04 18:03 38.93678 -77.46673 304 ft 123 kts 291°
2026-05-04 18:03 38.94045 -77.47927 310 ft 174 kts 289°
2026-05-04 18:03 38.94499 -77.49446 713 ft 188 kts 287°
2026-05-04 18:04 38.94963 -77.51003 1561 ft 185 kts 281°
2026-05-04 18:04 38.95161 -77.52628 2168 ft 188 kts 265°
2026-05-04 18:04 38.94781 -77.56058 3094 ft 211 kts 259°
2026-05-04 18:05 38.94562 -77.58037 3389 ft 239 kts 259°
2026-05-04 18:05 38.94326 -77.60202 3394 ft 247 kts 260°
2026-05-04 18:05 38.94060 -77.62391 3395 ft 248 kts 259°
2026-05-04 18:05 38.93793 -77.64577 3394 ft 248 kts 259°
2026-05-04 18:06 38.92560 -77.68687 4889 ft 252 kts 227°
2026-05-04 18:06 38.91092 -77.69934 5767 ft 259 kts 201°
2026-05-04 18:06 38.89315 -77.70454 6607 ft 264 kts 194°
2026-05-04 18:07 38.87495 -77.70900 7413 ft 268 kts 194°
2026-05-04 18:07 38.85644 -77.71349 8219 ft 273 kts 194°
2026-05-04 18:07 38.83761 -77.71804 9027 ft 278 kts 194°
2026-05-04 18:07 38.81843 -77.72267 9823 ft 283 kts 194°
2026-05-04 18:08 38.79876 -77.72746 10328 ft 297 kts 194°
2026-05-04 18:08 38.77768 -77.73269 10561 ft 320 kts 194°
2026-05-04 18:08 38.75512 -77.73834 10863 ft 338 kts 194°
2026-05-04 18:08 38.73180 -77.74414 11474 ft 345 kts 195°
2026-05-04 18:09 38.68404 -77.75592 12816 ft 354 kts 195°
2026-05-04 18:09 38.63518 -77.76792 14128 ft 361 kts 195°
2026-05-04 18:10 38.61037 -77.77404 14721 ft 365 kts 195°
2026-05-04 18:10 38.58529 -77.78023 15323 ft 368 kts 195°
2026-05-04 18:10 38.56011 -77.78691 15912 ft 370 kts 199°
2026-05-04 18:10 38.53640 -77.79822 16475 ft 369 kts 210°
2026-05-04 18:11 38.51463 -77.81534 17058 ft 367 kts 221°
2026-05-04 18:11 38.49595 -77.83743 17626 ft 367 kts 231°
2026-05-04 18:11 38.47883 -77.86175 18213 ft 370 kts 231°
2026-05-04 18:11 38.46151 -77.88623 18736 ft 373 kts 231°
2026-05-04 18:12 38.44455 -77.91139 19250 ft 374 kts 237°
2026-05-04 18:12 38.42943 -77.93851 19773 ft 376 kts 238°
2026-05-04 18:12 38.41427 -77.96588 20302 ft 379 kts 238°
2026-05-04 18:12 38.39903 -77.99341 20816 ft 382 kts 238°
2026-05-04 18:13 38.38365 -78.02118 21325 ft 385 kts 238°
2026-05-04 18:13 38.36814 -78.04916 21822 ft 388 kts 238°
2026-05-04 18:13 38.33678 -78.10565 22770 ft 393 kts 238°
2026-05-04 18:14 38.32092 -78.13415 23231 ft 396 kts 238°
2026-05-04 18:14 38.30489 -78.16289 23661 ft 399 kts 238°
2026-05-04 18:14 38.28878 -78.19175 24030 ft 400 kts 239°
2026-05-04 18:15 38.25650 -78.24953 24857 ft 401 kts 239°
2026-05-04 18:15 38.22425 -78.30724 25615 ft 403 kts 239°
2026-05-04 18:15 38.20798 -78.33635 25982 ft 405 kts 239°
2026-05-04 18:16 38.19167 -78.36553 26344 ft 406 kts 239°
2026-05-04 18:16 38.17526 -78.39479 26708 ft 407 kts 239°
2026-05-04 18:16 38.15847 -78.42399 27041 ft 410 kts 239°
2026-05-04 18:17 38.12387 -78.48179 27729 ft 413 kts 238°
2026-05-04 18:17 38.10631 -78.51068 28055 ft 414 kts 238°
2026-05-04 18:17 38.07115 -78.56871 28697 ft 414 kts 239°
2026-05-04 18:18 38.05363 -78.59782 29005 ft 415 kts 239°
2026-05-04 18:18 38.03613 -78.62697 29286 ft 416 kts 239°
2026-05-04 18:18 38.01857 -78.65622 29556 ft 417 kts 239°
2026-05-04 18:18 38.00093 -78.68557 29831 ft 418 kts 239°
2026-05-04 18:19 37.96554 -78.74444 30234 ft 421 kts 239°
2026-05-04 18:19 37.94775 -78.77402 30411 ft 422 kts 239°
2026-05-04 18:19 37.92990 -78.80362 30566 ft 424 kts 239°
2026-05-04 18:20 37.91194 -78.83330 30751 ft 424 kts 239°
2026-05-04 18:20 37.89399 -78.86295 30970 ft 424 kts 239°
2026-05-04 18:20 37.87603 -78.89257 31193 ft 423 kts 239°
2026-05-04 18:20 37.85836 -78.92172 31405 ft 423 kts 238°
2026-05-04 18:21 37.84041 -78.95128 31615 ft 423 kts 238°
2026-05-04 18:21 37.82251 -78.98075 31848 ft 422 kts 238°
2026-05-04 18:21 37.80462 -79.01018 32070 ft 422 kts 238°
2026-05-04 18:21 37.78674 -79.03962 32282 ft 422 kts 238°
2026-05-04 18:22 37.76887 -79.06902 32480 ft 422 kts 238°
2026-05-04 18:22 37.75099 -79.09843 32698 ft 422 kts 238°
2026-05-04 18:22 37.73312 -79.12777 32935 ft 421 kts 238°
2026-05-04 18:22 37.71526 -79.15704 33151 ft 420 kts 238°
2026-05-04 18:23 37.69744 -79.18623 33396 ft 419 kts 238°
2026-05-04 18:23 37.67970 -79.21538 33694 ft 416 kts 238°
2026-05-04 18:23 37.66235 -79.24438 33951 ft 413 kts 239°
2026-05-04 18:23 37.64522 -79.27335 33991 ft 411 kts 239°
2026-05-04 18:24 37.61121 -79.33122 34000 ft 410 kts 239°
2026-05-04 18:24 37.57709 -79.38895 34002 ft 410 kts 239°
2026-05-04 18:25 37.54277 -79.44660 34018 ft 412 kts 238°
2026-05-04 18:25 37.50860 -79.50389 34025 ft 412 kts 238°
2026-05-04 18:26 37.47424 -79.56143 34026 ft 410 kts 239°
2026-05-04 18:26 37.43995 -79.61867 34029 ft 409 kts 238°
2026-05-04 18:27 37.40573 -79.67576 34025 ft 409 kts 239°
2026-05-04 18:27 37.37149 -79.73284 34036 ft 409 kts 238°
2026-05-04 18:28 37.33720 -79.78992 34035 ft 409 kts 238°
2026-05-04 18:28 37.30281 -79.84696 34042 ft 409 kts 238°
2026-05-04 18:29 37.26841 -79.90394 34036 ft 408 kts 239°
2026-05-04 18:29 37.23410 -79.96069 34030 ft 407 kts 239°
2026-05-04 18:30 37.18288 -80.04515 34043 ft 407 kts 239°
2026-05-04 18:31 37.14849 -80.10181 34048 ft 408 kts 238°
2026-05-04 18:31 37.11409 -80.15836 34054 ft 408 kts 238°
2026-05-04 18:32 37.07959 -80.21490 34055 ft 408 kts 238°
2026-05-04 18:32 37.04534 -80.27104 34061 ft 408 kts 238°
2026-05-04 18:33 37.00973 -80.32655 34056 ft 413 kts 232°
2026-05-04 18:33 36.96953 -80.37811 34051 ft 414 kts 232°
2026-05-04 18:34 36.92927 -80.42961 34046 ft 414 kts 232°
2026-05-04 18:34 36.88901 -80.48101 34031 ft 414 kts 232°
2026-05-04 18:35 36.84877 -80.53242 34000 ft 414 kts 232°
2026-05-04 18:35 36.80837 -80.58387 34025 ft 415 kts 232°
2026-05-04 18:36 36.76787 -80.63531 34064 ft 415 kts 232°
2026-05-04 18:36 36.72736 -80.68673 34067 ft 415 kts 232°
2026-05-04 18:37 36.68712 -80.73773 34070 ft 415 kts 232°
2026-05-04 18:37 36.64659 -80.78903 34066 ft 415 kts 232°
2026-05-04 18:38 36.60596 -80.84051 34058 ft 418 kts 232°
2026-05-04 18:38 36.56519 -80.89203 34051 ft 418 kts 232°
2026-05-04 18:39 36.52432 -80.94351 34031 ft 418 kts 232°
2026-05-04 18:39 36.48338 -80.99500 34045 ft 419 kts 232°
2026-05-04 18:40 36.44238 -81.04649 34067 ft 419 kts 232°
2026-05-04 18:40 36.40133 -81.09786 34070 ft 419 kts 231°
2026-05-04 18:41 36.36714 -81.14063 34089 ft 420 kts 231°
2026-05-04 18:41 36.32597 -81.19206 34097 ft 420 kts 231°
2026-05-04 18:42 36.28485 -81.24356 34079 ft 420 kts 231°
2026-05-04 18:42 36.24364 -81.29509 34071 ft 421 kts 231°
2026-05-04 18:43 36.20233 -81.34647 34056 ft 421 kts 231°
2026-05-04 18:43 36.16095 -81.39792 34049 ft 422 kts 231°
2026-05-04 18:44 36.11957 -81.44942 34031 ft 421 kts 231°
2026-05-04 18:44 36.07845 -81.50046 34014 ft 422 kts 231°
2026-05-04 18:45 36.03701 -81.55171 34020 ft 422 kts 231°
2026-05-04 18:45 35.99551 -81.60301 34020 ft 421 kts 231°
2026-05-04 18:46 35.95405 -81.65421 33992 ft 421 kts 230°
2026-05-04 18:46 35.91259 -81.70527 34024 ft 421 kts 230°
2026-05-04 18:47 35.87118 -81.75627 34016 ft 421 kts 230°
2026-05-04 18:47 35.82968 -81.80722 34076 ft 421 kts 230°
2026-05-04 18:48 35.78819 -81.85812 34071 ft 421 kts 230°
2026-05-04 18:48 35.74636 -81.90866 34058 ft 421 kts 230°
2026-05-04 18:49 35.70457 -81.95848 34051 ft 421 kts 229°
2026-05-04 18:49 35.66221 -82.00891 34056 ft 421 kts 229°
2026-05-04 18:50 35.62040 -82.05870 34048 ft 421 kts 229°
2026-05-04 18:50 35.57831 -82.10880 34061 ft 421 kts 230°
2026-05-04 18:51 35.53625 -82.15893 34059 ft 421 kts 230°
2026-05-04 18:51 35.49411 -82.20905 34042 ft 422 kts 229°
2026-05-04 18:52 35.45187 -82.25914 34057 ft 422 kts 229°
2026-05-04 18:52 35.40972 -82.30928 34051 ft 422 kts 230°
2026-05-04 18:53 35.36858 -82.36036 34039 ft 421 kts 231°
2026-05-04 18:53 35.32779 -82.41171 34045 ft 421 kts 231°
2026-05-04 18:54 35.28672 -82.46278 34055 ft 421 kts 230°
2026-05-04 18:54 35.24556 -82.51368 34082 ft 421 kts 230°
2026-05-04 18:55 35.20466 -82.56433 34079 ft 421 kts 230°
2026-05-04 18:55 35.14267 -82.64058 34055 ft 422 kts 230°
2026-05-04 18:56 35.10060 -82.69059 34062 ft 422 kts 229°
2026-05-04 18:56 35.05830 -82.74022 34062 ft 422 kts 229°
2026-05-04 18:57 35.01612 -82.78998 34061 ft 421 kts 229°
2026-05-04 18:57 34.97403 -82.83976 34066 ft 421 kts 229°
2026-05-04 18:58 34.93197 -82.88952 34066 ft 422 kts 229°
2026-05-04 18:58 34.88960 -82.93895 34063 ft 422 kts 228°
2026-05-04 18:59 34.84693 -82.98813 34078 ft 422 kts 228°
2026-05-04 18:59 34.80430 -83.03722 34079 ft 422 kts 228°
2026-05-04 19:00 34.78304 -83.06177 33953 ft 421 kts 229°
2026-05-04 19:00 34.76186 -83.08624 33197 ft 421 kts 229°
2026-05-04 19:00 34.74084 -83.11055 32264 ft 423 kts 229°
2026-05-04 19:00 34.71946 -83.13525 31315 ft 425 kts 229°
2026-05-04 19:01 34.69791 -83.16008 30296 ft 429 kts 229°
2026-05-04 19:01 34.67608 -83.18518 29134 ft 434 kts 228°
2026-05-04 19:01 34.65405 -83.21044 28039 ft 436 kts 228°
2026-05-04 19:01 34.63196 -83.23577 26910 ft 439 kts 228°
2026-05-04 19:02 34.60983 -83.26112 26226 ft 433 kts 228°
2026-05-04 19:02 34.58807 -83.28601 25490 ft 428 kts 228°
2026-05-04 19:02 34.56647 -83.31074 24764 ft 425 kts 228°
2026-05-04 19:02 34.54507 -83.33527 24030 ft 423 kts 228°
2026-05-04 19:03 34.52380 -83.35972 23291 ft 420 kts 227°
2026-05-04 19:03 34.50271 -83.38399 22600 ft 416 kts 227°
2026-05-04 19:03 34.48185 -83.40801 21934 ft 411 kts 227°
2026-05-04 19:03 34.46121 -83.43178 21304 ft 407 kts 227°
2026-05-04 19:04 34.44073 -83.45530 20678 ft 404 kts 227°
2026-05-04 19:04 34.42038 -83.47867 20079 ft 401 kts 227°
2026-05-04 19:04 34.40021 -83.50182 19513 ft 398 kts 227°
2026-05-04 19:04 34.38040 -83.52456 18958 ft 396 kts 227°
2026-05-04 19:05 34.36042 -83.54743 18431 ft 393 kts 227°
2026-05-04 19:05 34.34053 -83.57013 17778 ft 392 kts 226°
2026-05-04 19:05 34.32077 -83.59269 17265 ft 387 kts 226°
2026-05-04 19:05 34.30126 -83.61494 16742 ft 384 kts 226°
2026-05-04 19:06 34.28191 -83.63690 16257 ft 379 kts 225°
2026-05-04 19:06 34.26244 -83.65819 15749 ft 376 kts 224°
2026-05-04 19:06 34.24282 -83.67904 15232 ft 374 kts 223°
2026-05-04 19:06 34.22324 -83.69956 14724 ft 372 kts 223°
2026-05-04 19:07 34.20373 -83.71998 14186 ft 371 kts 223°
2026-05-04 19:07 34.18430 -83.74040 13605 ft 369 kts 223°
2026-05-04 19:07 34.16503 -83.76075 13019 ft 366 kts 223°
2026-05-04 19:07 34.14594 -83.78097 12452 ft 363 kts 222°
2026-05-04 19:08 34.12701 -83.80105 11862 ft 362 kts 222°
2026-05-04 19:08 34.10818 -83.82101 11257 ft 359 kts 221°
2026-05-04 19:08 34.08958 -83.84072 10871 ft 348 kts 221°
2026-05-04 19:08 34.07216 -83.85936 10738 ft 320 kts 221°
2026-05-04 19:09 34.05621 -83.87654 10578 ft 296 kts 221°
2026-05-04 19:09 34.04129 -83.89264 10320 ft 288 kts 221°
2026-05-04 19:09 34.02649 -83.90857 10082 ft 283 kts 221°
2026-05-04 19:09 34.01188 -83.92426 9886 ft 279 kts 220°
2026-05-04 19:10 33.99736 -83.93982 9757 ft 279 kts 220°
2026-05-04 19:10 33.98230 -83.95445 9625 ft 277 kts 211°
2026-05-04 19:10 33.96483 -83.96392 9486 ft 275 kts 195°
2026-05-04 19:10 33.94592 -83.96716 9357 ft 276 kts 180°
2026-05-04 19:11 33.92670 -83.96640 9047 ft 276 kts 178°
2026-05-04 19:11 33.90761 -83.96556 8851 ft 274 kts 178°
2026-05-04 19:11 33.88849 -83.96473 8781 ft 275 kts 179°
2026-05-04 19:11 33.86939 -83.96391 8685 ft 275 kts 179°
2026-05-04 19:12 33.85025 -83.96310 8572 ft 275 kts 179°
2026-05-04 19:12 33.81203 -83.96146 8345 ft 275 kts 179°
2026-05-04 19:12 33.79295 -83.96068 8230 ft 274 kts 179°
2026-05-04 19:13 33.77385 -83.95990 8118 ft 274 kts 179°
2026-05-04 19:13 33.75486 -83.96090 8009 ft 273 kts 190°
2026-05-04 19:13 33.73669 -83.96748 7731 ft 273 kts 202°
2026-05-04 19:13 33.71922 -83.97628 7449 ft 271 kts 202°
2026-05-04 19:14 33.70181 -83.98496 7173 ft 270 kts 202°
2026-05-04 19:14 33.68446 -83.99359 6903 ft 269 kts 202°
2026-05-04 19:14 33.66787 -84.00374 6630 ft 266 kts 217°
2026-05-04 19:14 33.65570 -84.01993 6364 ft 261 kts 239°
2026-05-04 19:15 33.64962 -84.04016 6082 ft 257 kts 261°
2026-05-04 19:15 33.64909 -84.06130 5825 ft 249 kts 269°
2026-05-04 19:15 33.64921 -84.08106 5594 ft 233 kts 268°
2026-05-04 19:15 33.64927 -84.10014 5365 ft 226 kts 269°
2026-05-04 19:16 33.64931 -84.11881 5136 ft 222 kts 268°
2026-05-04 19:16 33.64934 -84.13715 4916 ft 219 kts 268°
2026-05-04 19:16 33.64937 -84.15538 4666 ft 218 kts 269°
2026-05-04 19:16 33.64939 -84.17360 4417 ft 218 kts 269°
2026-05-04 19:17 33.64941 -84.19173 4198 ft 217 kts 269°
2026-05-04 19:17 33.64944 -84.21001 3955 ft 219 kts 269°
2026-05-04 19:17 33.64947 -84.22819 3720 ft 217 kts 269°
2026-05-04 19:17 33.64948 -84.24599 3484 ft 210 kts 268°
2026-05-04 19:18 33.64950 -84.26310 3333 ft 201 kts 269°
2026-05-04 19:18 33.64949 -84.27950 3106 ft 192 kts 267°
2026-05-04 19:18 33.64949 -84.29477 2872 ft 179 kts 268°
2026-05-04 19:18 33.64950 -84.30916 2655 ft 167 kts 266°
2026-05-04 19:19 33.64951 -84.32305 2457 ft 165 kts 268°
2026-05-04 19:19 33.64952 -84.33660 2233 ft 161 kts 267°
2026-05-04 19:19 33.64953 -84.34985 2027 ft 157 kts 267°
2026-05-04 19:19 33.64953 -84.36264 1827 ft 151 kts 267°
2026-05-04 19:20 33.64953 -84.37516 1617 ft 150 kts 268°
2026-05-04 19:20 33.64953 -84.38769 1399 ft 150 kts 268°
2026-05-04 19:20 33.64956 -84.40020 1193 ft 150 kts 267°
2026-05-04 19:20 33.64955 -84.41270 1015 ft 148 kts 266°
2026-05-04 19:21 33.64953 -84.42352 1006 ft 106 kts 270°
2026-05-04 19:21 33.64953 -84.43027 1006 ft 50 kts 268°
2026-05-04 19:21 33.64867 -84.43327 1006 ft 32 kts 243°
2026-05-04 19:21 33.64824 -84.43528 1007 ft 19 kts 223°
2026-05-04 19:22 33.64702 -84.43608 1006 ft 21 kts 208°
2026-05-04 19:22 33.64580 -84.43694 1006 ft 18 kts 211°
2026-05-04 19:22 33.64526 -84.43719 1006 ft 8 kts 182°
2026-05-04 19:22 33.64450 -84.43789 1006 ft 16 kts 206°
2026-05-04 19:23 33.64336 -84.43787 1006 ft 17 kts 178°
2026-05-04 19:23 33.64235 -84.43795 1006 ft 11 kts 203°
2026-05-04 19:23 33.64222 -84.43852 1006 ft 4 kts 271°
2026-05-04 19:23 33.64223 -84.43868 1006 ft 1 kts 271°
2026-05-04 19:24 33.64223 -84.43874 1006 ft 1 kts 271°
2026-05-04 19:24 33.64223 -84.43876 1006 ft 0 kts 271°